RH
35 36 37 40 42 45 67 91 96 99 97 86 84 87 77 61 56 57 51 42 40 41 44 47 45 43 42 39 42 56 69 71 62 51 40 30 25 24 24 26 28 30 31 32 32 31 32 42 55 58 57 65 74 73 56 38 34 36 37 40 42 43 45 48 50 54 57 58 58 58 58 57 58 60 61 60 59 57 56 55 54 53 52 51 51
36 35 34 37 39 37 46 62 69 79 93 99 98 99 93 75 61 62 59 51 48 43 39 44 44 41 40 38 36 39 52 66 69 64 55 43 31 24 23 24 25 26 28 30 30 30 29 30 35 41 47 53 60 65 61 51 42 38 39 40 41 44 47 49 51 53 55 55 54 53 53 53 52 52 55 58 60 62 62 60 59 57 54 50 48
40 37 35 35 39 40 39 42 47 56 69 79 85 88 87 78 71 72 68 59 57 53 42 38 41 41 39 39 38 35 36 48 61 68 66 58 45 31 22 21 23 24 26 26 27 27 26 24 24 28 36 42 45 50 55 54 48 44 43 43 42 44 47 50 52 53 53 53 52 51 49 48 47 45 46 49 53 59 61 60 58 56 53 48 44
44 41 39 37 37 40 41 40 40 43 48 54 61 65 64 66 72 76 78 74 70 65 51 38 38 40 38 37 38 37 35 35 44 56 64 64 60 48 32 22 20 20 22 24 25 25 24 22 21 22 25 30 35 39 42 45 45 42 41 44 44 43 45 48 50 52 53 52 51 50 48 45 43 42 42 42 43 45 47 48 46 45 44 43 41
42 43 44 41 38 39 42 43 41 39 41 43 46 52 54 58 64 67 72 76 78 79 66 45 37 39 40 37 34 36 38 37 36 42 51 57 59 58 49 35 24 19 19 20 21 21 21 20 20 22 23 23 26 31 33 35 39 40 40 41 41 42 44 45 46 48 50 51 50 49 47 45 42 40 39 39 38 38 37 37 37 36 36 36 35
39 40 43 43 46 48 44 43 43 40 38 37 37 42 46 50 56 61 64 65 69 80 77 57 40 38 41 41 36 34 35 37 37 35 39 48 53 55 53 46 37 28 20 17 18 20 20 20 20 18 18 18 17 20 24 26 30 36 39 38 37 39 43 44 46 47 47 47 49 48 46 45 44 41 39 38 37 37 36 35 35 35 35 35 35
48 40 38 40 61 74 56 42 44 43 41 40 36 37 39 42 47 51 58 61 63 71 75 63 45 36 39 44 45 42 36 34 36 35 33 37 44 49 49 47 44 40 33 26 21 17 14 20 30 27 20 18 15 13 16 20 23 27 30 31 32 33 37 41 43 45 46 45 45 46 46 45 45 44 42 41 39 39 38 37 36 36 35 35 35
79 66 50 40 66 94 84 63 52 46 44 44 40 37 38 41 43 42 47 57 64 67 70 66 52 39 36 40 46 47 38 30 31 34 35 32 34 39 43 46 44 43 47 43 38 44 44 35 35 33 25 22 21 17 15 15 17 20 23 25 27 27 29 33 37 39 41 42 41 42 43 43 44 43 42 41 40 39 38 37 36 36 36 36 35
96 90 69 47 56 84 98 93 73 55 50 49 48 46 44 45 47 43 41 48 58 64 68 67 60 48 38 36 38 40 39 35 31 32 35 35 34 33 33 39 40 41 50 51 51 70 74 48 31 30 28 26 22 17 16 16 15 15 17 18 20 22 24 25 29 32 32 34 35 35 36 37 37 38 37 36 36 35 34 33 32 31 30 30 30
93 95 83 69 71 81 94 96 78 59 53 49 47 48 48 49 50 48 45 46 50 57 64 70 67 57 46 39 36 36 40 44 42 36 34 33 35 36 33 33 34 36 46 47 42 48 50 41 39 41 40 36 27 18 16 16 16 15 15 15 14 15 18 20 21 23 24 25 27 28 28 28 27 28 28 28 28 27 27 26 25 25 24 24 24
88 85 79 80 92 97 98 96 86 78 72 63 56 53 50 48 47 48 50 48 51 56 61 69 72 68 57 47 41 39 42 49 51 47 43 37 33 36 37 35 35 36 39 36 32 33 34 35 40 41 41 38 28 24 23 18 17 17 14 15 16 14 14 15 15 16 17 17 18 19 19 19 19 20 20 20 21 21 20 20 20 20 20 20 20
76 76 76 81 94 101 102 102 98 95 91 87 83 77 71 61 46 40 44 45 49 54 56 60 68 71 71 65 57 50 45 44 46 50 53 48 39 35 36 38 37 36 34 28 26 32 33 30 31 37 48 50 37 29 31 26 21 22 20 16 17 17 16 16 16 16 18 18 17 17 16 16 16 16 16 16 16 16 17 18 18 19 20 20 20
81 91 96 94 98 102 103 104 101 96 95 100 102 95 89 78 55 39 40 42 42 46 50 51 52 59 73 82 79 72 63 52 47 51 58 58 51 43 36 37 39 36 34 31 28 31 31 29 31 36 50 68 60 34 27 31 27 24 27 25 21 22 23 24 25 25 26 26 24 22 21 20 20 20 20 20 20 20 19 18 18 19 19 19 19
81 87 92 96 104 104 96 88 82 79 78 80 87 93 97 95 77 54 44 42 41 42 45 46 46 51 64 77 83 83 78 66 54 53 62 68 68 62 49 39 38 38 37 35 32 32 32 32 36 33 38 65 75 44 22 27 27 20 22 24 24 27 28 27 26 26 25 24 23 23 23 23 24 24 24 25 27 27 27 26 25 26 27 30 35
77 71 69 77 97 102 88 70 53 46 47 45 47 63 83 96 92 69 47 38 36 35 39 45 49 49 53 63 75 82 84 79 67 56 54 56 62 73 71 55 42 39 39 38 35 34 34 34 37 36 31 47 75 72 51 38 31 26 24 22 21 23 25 24 23 22 23 24 25 27 27 25 24 23 22 23 23 25 26 27 27 30 35 41 47
78 69 59 57 73 83 77 65 47 36 39 40 33 33 44 59 64 52 38 34 33 35 45 54 53 52 58 62 64 68 77 85 87 78 64 53 52 67 81 75 59 45 39 39 38 35 35 35 36 38 33 31 52 79 87 74 52 34 29 29 29 28 27 27 27 27 30 35 37 39 38 35 32 30 27 26 24 23 23 23 23 24 25 27 28
73 63 58 54 58 60 56 52 45 37 40 48 44 34 29 31 32 29 27 31 33 35 47 61 63 64 76 83 78 74 74 79 92 99 93 81 70 65 73 80 76 62 46 40 40 38 37 38 35 36 38 32 30 46 70 85 80 60 44 39 39 39 39 39 40 43 45 49 52 50 45 42 40 37 35 34 32 31 29 28 27 26 25 25 26
75 61 59 60 62 64 63 57 47 39 41 48 51 46 38 33 31 29 26 28 31 29 31 50 63 61 67 81 90 93 91 87 94 103 102 99 94 77 66 69 75 76 64 48 41 40 40 41 39 35 37 38 35 31 34 50 70 79 75 67 60 55 53 52 53 56 59 61 64 62 56 53 49 45 43 41 39 38 37 35 34 33 32 32 33
85 68 63 68 72 77 82 78 64 52 49 52 58 61 55 45 40 37 31 27 30 28 25 35 51 58 66 73 75 85 98 99 100 104 99 99 103 96 82 69 65 77 82 68 53 47 41 40 42 41 39 38 38 37 31 29 41 58 72 78 74 65 62 61 62 65 69 70 68 65 61 59 57 55 54 51 49 47 45 43 42 41 39 38 37
97 83 70 71 79 85 91 94 87 76 67 64 65 67 64 55 48 44 40 34 31 31 29 29 33 42 57 65 66 80 99 103 102 104 99 95 98 100 98 84 65 68 81 80 70 63 53 45 42 43 45 44 40 39 38 34 34 39 48 56 58 55 55 57 59 64 69 71 68 63 59 59 60 62 61 58 55 54 53 50 49 47 46 44 43
102 99 86 77 79 85 93 101 101 93 85 79 73 70 70 71 66 56 47 41 38 35 33 32 31 29 35 51 68 79 85 91 99 101 91 89 97 101 102 96 77 66 71 76 72 69 65 59 54 51 53 54 52 47 43 41 40 40 40 42 45 48 51 52 53 59 65 70 72 70 65 61 60 63 65 62 58 58 61 61 58 55 52 49 47
99 102 99 92 88 87 91 99 102 100 97 95 91 88 89 91 88 79 65 52 46 44 39 37 36 31 32 48 69 80 82 87 100 100 83 76 88 95 96 100 96 83 78 78 74 66 62 64 67 69 68 67 66 62 56 51 49 48 48 48 48 53 60 62 61 62 66 72 75 73 70 67 63 64 69 69 62 58 59 61 60 59 57 54 50
99 100 101 100 99 97 97 100 101 101 102 102 100 101 102 100 99 97 87 71 59 54 50 45 40 36 33 34 46 71 91 93 96 104 92 70 69 79 80 84 94 96 90 86 82 75 69 69 74 78 80 80 82 82 76 67 61 60 61 61 59 62 70 74 71 70 75 77 72 66 67 67 64 63 68 73 73 68 61 55 52 49 49 50 49
99 99 100 100 101 100 99 102 103 102 103 104 102 102 104 102 100 101 98 90 79 68 60 53 46 41 39 34 30 45 71 84 90 102 94 65 54 66 69 63 68 78 81 79 77 78 83 87 89 89 91 91 93 96 94 85 77 72 72 72 73 75 80 83 83 83 83 75 61 52 52 52 51 51 55 59 64 67 64 57 49 43 41 41 42
99 99 97 98 102 102 99 100 102 101 101 101 101 103 104 101 99 100 100 98 94 85 73 61 51 44 43 45 40 34 41 54 62 68 68 53 40 49 65 70 67 66 68 70 72 79 90 99 101 100 100 101 102 104 104 101 96 91 87 85 86 89 93 96 95 88 75 60 47 42 41 41 40 39 40 41 47 55 60 59 53 49 47 46 45
89 97 94 90 95 102 102 101 100 100 101 102 100 101 102 101 101 100 99 99 99 96 85 69 60 57 53 52 51 44 39 40 36 33 41 46 35 29 43 64 78 84 84 78 76 84 94 99 100 97 91 88 89 93 98 101 102 102 100 98 97 98 98 94 85 74 61 52 47 43 41 40 39 38 38 39 42 47 51 53 54 55 57 58 57
67 84 93 91 88 92 97 101 103 100 99 101 102 102 101 100 101 100 99 99 98 96 93 84 78 79 77 71 66 60 54 49 40 31 30 34 32 28 28 35 52 76 95 97 91 92 94 91 88 83 73 64 61 63 67 72 77 80 82 85 89 92 91 83 72 64 58 53 50 47 45 45 44 43 43 44 47 49 51 54 58 62 66 70 71
54 62 75 84 88 89 88 92 100 103 102 100 101 103 104 101 100 99 100 101 100 97 96 96 95 97 98 95 91 87 82 75 65 56 47 39 34 33 34 31 30 39 59 78 87 93 97 95 92 88 76 59 48 43 44 49 55 56 58 62 69 77 81 79 74 69 62 57 55 53 52 52 52 51 52 55 58 62 64 63 63 65 68 73 77
59 56 57 62 73 83 85 82 82 86 94 100 100 102 103 102 101 101 100 100 101 102 100 98 98 100 102 102 102 101 100 97 90 83 77 69 57 44 37 36 34 28 31 42 53 62 71 80 89 92 82 64 52 49 50 53 54 52 50 52 57 66 73 76 73 68 63 62 62 60 57 56 56 57 61 67 72 77 80 78 75 72 72 74 76
56 57 55 49 49 59 72 79 76 68 70 82 91 97 102 103 101 101 101 100 100 102 103 101 98 96 97 99 103 103 102 102 101 96 89 85 81 69 53 42 37 34 33 42 55 63 64 63 67 70 66 59 56 57 59 61 62 61 58 56 57 63 70 72 69 65 63 63 62 61 58 57 57 61 69 76 81 83 85 85 84 83 84 86 86
46 48 50 46 40 37 42 57 70 70 63 62 67 75 87 98 102 101 101 102 102 101 101 101 100 99 96 96 99 101 101 102 104 102 95 88 81 76 69 60 50 41 37 45 66 85 92 89 84 78 72 70 69 68 68 70 72 72 70 68 69 71 73 72 69 66 66 66 66 65 63 63 66 72 78 81 84 85 87 89 91 92 93 95 97
31 34 36 37 41 39 32 32 44 54 57 58 59 59 61 72 85 94 98 101 103 103 102 101 100 100 100 99 100 100 100 101 101 101 104 102 92 82 75 68 61 54 46 43 51 68 87 100 105 104 102 99 95 91 87 84 82 79 77 77 80 81 80 80 79 79 80 83 84 84 84 85 89 93 93 91 93 96 97 97 97 99 101 103 103
23 25 25 26 32 38 36 30 30 31 34 41 52 58 56 54 58 68 78 88 94 98 101 101 100 101 100 99 99 100 101 102 101 99 100 103 103 99 91 79 70 64 58 51 45 46 56 71 83 91 96 100 103 105 104 101 98 95 92 92 94 95 93 92 92 93 96 99 100 99 99 98 99 100 99 98 99 100 101 101 101 100 102 103 100
24 25 25 25 30 36 37 34 32 30 25 23 30 42 52 55 53 50 53 61 72 82 88 89 90 96 101 102 101 100 99 99 101 102 101 99 100 102 102 96 88 79 71 64 57 50 46 49 55 60 65 73 81 90 96 100 100 98 95 93 94 96 101 104 103 102 102 102 101 101 101 100 100 100 100 101 101 98 94 91 88 85 87 94 96
23 24 25 29 37 44 44 39 37 36 32 26 23 25 32 41 49 51 49 47 50 59 69 74 75 78 84 91 98 102 102 100 98 99 101 101 100 100 100 100 100 97 92 86 79 71 63 58 54 53 55 58 65 72 80 87 91 91 89 84 78 76 81 89 96 100 102 101 101 101 98 98 100 101 101 99 94 87 82 80 81 84 87 87 81
26 25 25 28 32 37 38 38 37 36 35 32 29 26 24 25 31 40 48 51 49 47 51 58 63 65 66 69 76 85 96 103 104 101 99 99 100 101 101 100 99 99 100 100 98 95 90 84 76 71 69 68 68 69 71 73 75 75 75 72 66 62 63 68 79 89 93 93 93 90 84 81 82 85 90 93 89 84 82 82 79 74 64 50 37
31 28 26 26 26 26 26 27 27 28 29 28 27 26 26 24 23 24 31 42 49 51 48 47 50 54 56 56 55 56 64 78 93 102 104 101 99 98 100 101 102 101 99 99 100 100 101 100 96 93 90 87 85 83 80 77 75 73 73 71 65 59 56 57 61 69 75 77 79 79 74 69 63 60 61 64 63 59 56 50 42 33 24 17 14
31 30 27 24 24 22 21 21 21 22 23 25 24 24 24 24 24 21 20 23 30 37 42 44 44 44 46 49 49 45 42 45 57 73 88 99 104 103 99 97 98 99 100 101 100 99 100 101 100 101 102 99 97 97 97 95 93 92 91 90 87 82 78 74 73 76 80 83 83 79 71 62 52 42 36 34 32 29 25 21 18 16 14 13 12
28 29 28 27 25 23 21 20 20 20 21 22 24 24 23 22 21 19 18 17 17 18 22 26 29 30 30 32 35 35 33 33 37 43 52 66 83 96 102 103 102 100 99 100 100 99 100 101 99 99 100 99 97 99 99 96 96 97 96 95 96 96 95 92 89 87 86 83 78 72 62 51 40 32 27 24 21 18 16 15 14 13 11 10 10
22 24 27 27 28 27 25 23 21 21 20 19 19 20 20 20 19 18 17 17 18 18 19 18 17 17 17 17 19 19 19 22 31 37 39 40 45 55 67 80 90 95 99 101 101 99 100 99 96 94 94 93 93 96 96 92 90 91 90 86 84 83 80 76 72 69 66 61 54 48 41 32 25 20 18 16 14 13 13 12 11 10 10 10 10
18 19 20 22 23 24 23 22 21 22 23 24 23 22 20 18 17 17 17 17 17 19 20 19 18 16 14 12 12 13 12 12 16 25 33 36 36 35 35 37 44 51 59 68 73 77 80 82 81 80 80 79 79 82 84 82 80 79 76 70 64 58 52 47 42 38 35 31 26 22 18 15 13 12 11 11 11 10 10 10 9 9 9 8 8
20 19 18 18 19 19 18 17 17 17 20 23 26 26 25 22 20 18 16 15 15 14 14 13 14 15 14 13 12 11 12 12 11 12 16 21 27 31 32 30 28 27 28 30 32 35 39 43 45 45 46 47 48 48 48 47 47 46 43 38 34 30 25 22 19 18 16 14 12 12 11 10 10 10 10 9 9 9 9 9 8 8 8 8 9
21 20 19 19 18 18 17 16 15 15 15 16 17 18 19 19 19 19 19 19 19 18 17 14 12 11 11 12 12 12 11 12 13 12 12 12 13 18 22 23 23 23 23 23 23 22 21 22 23 22 22 23 24 24 23 22 21 21 19 17 17 16 14 14 13 13 12 12 11 11 11 10 10 10 9 9 9 9 9 9 9 9 10 10 10
23 21 21 22 21 19 19 18 17 17 16 15 14 14 15 14 14 15 17 19 22 24 25 24 22 20 17 14 13 13 13 13 13 13 14 13 12 13 14 14 13 13 14 15 17 17 16 16 16 17 17 16 16 17 17 17 17 16 16 15 15 14 13 13 13 12 11 11 11 11 11 12 11 11 11 11 11 11 12 12 12 12 12 11 11
25 25 24 24 23 22 21 20 19 18 17 17 16 15 15 15 15 14 14 15 16 19 21 21 21 23 23 22 21 19 18 17 16 15 15 14 14 13 12 12 12 11 11 11 11 12 11 11 11 12 12 13 12 12 13 13 14 14 15 15 15 15 14 14 13 13 13 13 13 14 15 15 16 16 16 16 16 15 14 13 13 12 12 11 11
21 22 22 23 24 24 23 22 21 20 18 18 18 18 17 16 16 15 15 15 14 14 15 16 15 16 17 18 20 20 20 20 18 17 16 16 15 14 14 13 13 13 12 12 11 10 10 10 10 10 10 10 10 10 10 11 12 13 14 14 15 16 16 16 15 15 15 15 16 17 17 17 17 17 17 17 16 15 13 13 12 12 12 12 12
16 16 17 18 18 19 19 19 19 19 19 19 19 19 19 18 16 15 14 15 15 15 14 14 14 14 13 13 13 14 14 15 15 15 16 16 16 15 15 14 14 14 13 13 12 12 12 12 12 12 12 12 11 11 11 11 11 12 13 15 16 18 19 19 19 19 18 18 17 16 15 14 14 13 13 14 13 13 13 13 12 12 12 12 12
12 13 14 15 14 14 14 14 13 14 15 15 16 17 18 18 17 17 16 16 16 16 16 15 15 14 14 13 13 13 12 12 13 13 13 13 14 14 14 14 14 14 14 13 13 12 12 13 13 13 13 13 12 12 11 11 12 12 13 13 15 16 16 17 16 16 15 15 14 13 13 12 12 12 12 12 12 12 12 12 12 12 12 12 12
11 10 10 11 12 11 11 12 11 11 11 11 12 12 13 13 13 14 15 17 17 18 18 18 18 18 17 16 16 15 15 15 15 14 14 13 13 12 12 12 13 13 13 13 13 12 12 12 12 13 13 12 12 12 12 12 12 12 13 13 13 13 13 13 13 13 13 13 12 12 12 12 12 12 12 12 13 13 13 13 13 13 13 13 13
11 11 10 10 10 10 9 9 9 10 10 11 11 10 10 10 10 10 10 12 14 15 16 17 17 18 18 19 19 19 19 19 18 18 18 17 16 16 15 15 14 14 13 13 13 12 12 12 12 12 12 12 12 12 12 12 12 12 12 12 12 12 12 12 12 12 12 12 12 12 13 13 13 13 13 13 13 13 13 14 14 14 14 14 14
10 11 11 11 11 11 10 10 9 8 8 8 8 8 8 8 8 9 9 10 10 11 12 14 14 15 15 15 16 17 17 18 19 20 20 20 20 20 20 20 20 19 19 18 17 17 16 16 15 15 14 14 14 14 14 14 14 14 14 14 14 14 14 14 14 14 14 14 14 14 14 15 15 14 15 15 15 15 15 15 15 15 15 15 14
Wind_Speed
13 12 10 8 5 4 4 0 1 1 1 2 3 3 3 4 8 11 13 14 15 16 16 17 17 17 17 18 19 19 19 18 18 18 17 17 16 16 16 16 16 15 15 15 16 16 17 17 17 18 20 20 19 19 20 21 21 21 21 21 22 23 23 23 23 23 23 23 23 23 22 22 23 24 25 26 27 27 28 29 30 30 31 31 32
18 16 14 13 11 10 8 5 2 2 2 1 1 3 3 3 4 6 9 11 12 13 15 15 15 15 15 15 16 17 17 17 17 16 16 16 15 15 14 14 14 14 14 14 14 15 16 17 17 17 17 18 19 18 18 18 18 18 18 18 19 20 20 20 20 20 20 20 20 19 19 20 20 21 22 23 24 24 24 25 26 27 27 27 28
21 19 18 17 16 14 13 11 8 6 4 4 4 5 4 4 3 2 4 7 9 11 12 13 13 13 13 13 14 15 15 15 15 15 14 14 15 14 14 14 13 13 13 13 13 13 14 16 17 17 17 17 16 15 15 16 16 16 15 15 16 17 17 17 17 17 17 17 16 16 17 17 18 19 19 20 21 22 22 22 23 23 24 24 25
24 22 21 21 20 19 17 16 14 12 10 8 8 7 7 8 7 5 5 5 6 8 9 11 12 12 11 11 12 13 13 14 14 13 13 13 13 14 14 14 13 13 13 13 13 13 13 14 14 15 16 15 14 13 13 13 14 14 14 14 14 14 14 14 14 14 14 14 14 14 14 15 16 16 17 18 19 20 20 21 21 21 22 22 22
26 25 23 23 22 22 21 20 18 16 15 14 12 11 11 10 10 9 9 8 6 5 7 9 11 11 10 9 9 10 11 12 12 12 12 11 12 13 13 13 14 14 13 13 13 12 12 12 12 12 13 13 12 12 11 11 12 12 12 12 13 13 12 11 11 10 10 10 10 11 11 12 13 14 15 16 17 18 18 19 20 20 20 20 21
29 27 25 24 24 24 25 23 21 20 19 18 17 16 15 14 13 13 13 12 10 7 6 7 10 10 10 9 8 8 7 8 9 9 10 10 10 10 11 13 13 13 14 13 13 12 11 11 11 11 10 10 11 11 10 9 10 10 10 11 11 11 11 10 8 8 7 7 6 7 7 8 9 10 12 13 14 15 16 17 17 18 18 19 19
32 29 27 26 24 25 25 26 25 24 23 22 21 20 19 18 17 16 15 15 14 11 10 9 10 10 10 10 8 8 6 5 5 6 7 8 8 8 8 11 12 13 14 13 13 12 12 11 9 8 8 8 9 9 9 8 8 8 9 10 9 8 8 8 8 7 6 5 4 3 3 4 5 6 8 9 10 12 13 14 15 16 17 18 19
32 30 30 29 27 26 26 27 28 27 26 26 25 24 23 21 20 19 18 17 17 16 14 13 13 12 12 11 11 10 8 6 4 3 3 4 5 6 5 6 9 11 12 12 13 11 8 9 10 9 9 8 7 7 7 6 6 6 6 7 7 6 5 5 6 5 5 4 3 1 0 1 2 3 5 7 8 10 11 12 13 15 16 17 18
32 31 30 30 30 31 31 30 30 30 29 29 28 27 25 24 23 21 20 19 19 19 19 18 16 15 14 13 13 12 11 9 7 5 4 3 3 3 3 3 4 7 8 9 9 6 2 6 11 11 9 8 7 6 5 4 3 3 3 4 4 5 5 5 5 4 4 3 2 2 2 3 4 5 6 7 9 10 11 13 15 16 17 18 19
33 31 29 30 33 35 36 36 35 34 33 33 32 31 29 28 26 23 22 22 22 21 21 21 20 18 17 16 16 15 14 13 12 10 8 7 5 4 3 2 0 2 3 4 5 5 5 9 10 8 7 7 5 5 5 3 3 2 2 3 4 4 5 7 7 7 7 7 7 7 7 8 8 9 10 11 12 13 14 16 17 19 20 21 22
36 33 32 33 35 38 38 38 37 36 35 34 33 33 32 31 30 27 25 24 24 23 23 23 23 22 21 20 18 17 17 17 16 14 13 12 10 9 9 7 6 4 5 5 3 4 5 7 7 6 6 6 6 5 5 5 4 3 2 2 2 3 5 6 7 8 9 10 10 11 12 13 14 14 15 16 16 17 18 19 20 21 22 24 24
37 36 35 35 35 37 40 41 40 37 36 34 34 34 33 32 32 31 29 27 26 26 25 25 26 25 25 24 23 21 19 20 19 17 16 16 16 14 13 12 11 10 10 7 3 3 4 2 3 3 4 3 3 3 5 5 5 5 4 3 2 1 2 3 5 6 7 8 10 11 13 14 15 16 17 18 19 20 20 20 21 21 21 23 25
38 38 38 38 38 39 41 42 42 40 38 37 37 37 36 36 36 34 33 31 30 29 28 28 28 28 28 28 28 25 23 22 22 21 20 20 20 19 18 17 16 15 14 12 8 7 7 5 3 5 6 4 2 3 3 4 5 6 6 6 6 4 3 1 1 2 4 6 8 9 10 12 13 15 15 16 17 18 19 19 19 19 19 20 21
46 45 46 46 47 47 46 45 44 43 41 40 41 41 41 40 38 36 35 35 34 33 32 31 31 31 31 31 31 30 28 26 25 24 24 24 24 24 23 21 20 20 19 18 16 14 12 10 10 9 9 8 5 7 6 4 5 6 6 7 7 7 6 5 4 3 4 5 7 10 11 11 12 13 13 14 14 14 15 16 16 15 15 16 17
52 52 52 53 53 53 52 51 51 51 49 48 47 47 45 43 41 39 38 39 38 37 36 35 34 34 34 34 33 33 32 31 30 29 28 28 27 27 27 26 25 24 24 23 21 19 17 15 15 13 12 11 9 9 9 8 8 7 6 6 6 6 6 5 4 3 2 3 4 8 11 12 13 13 13 14 13 13 13 14 14 14 14 14 15
56 56 57 58 58 59 58 58 57 56 56 54 53 53 52 50 49 46 44 43 42 40 39 37 36 36 37 36 37 37 36 36 37 36 34 32 31 30 31 30 29 28 28 27 26 24 22 20 19 17 15 13 12 12 13 14 13 12 10 9 8 7 6 6 5 4 3 4 8 11 13 14 16 17 17 16 15 15 14 14 14 14 13 14 16
63 62 63 63 64 65 65 64 62 61 60 59 58 57 57 56 54 51 48 46 44 41 39 37 35 34 35 37 39 40 39 39 41 41 40 38 37 35 35 34 33 32 31 31 30 28 27 25 23 21 19 18 16 14 15 17 17 16 15 14 14 13 12 10 10 10 10 12 15 17 17 18 20 22 22 22 23 22 20 19 17 16 15 14 15
70 68 68 68 69 69 69 68 66 64 63 63 62 62 61 59 56 53 51 49 47 45 42 40 36 33 36 40 42 42 41 41 42 42 43 43 41 40 39 38 36 34 34 34 34 33 31 30 28 26 24 22 20 18 19 20 20 20 20 20 21 20 19 18 18 18 18 19 21 22 21 22 24 25 26 28 29 29 28 28 28 26 24 23 21
74 74 72 72 72 72 72 72 70 68 67 66 66 65 64 62 59 57 54 53 51 49 47 44 40 36 39 43 45 44 44 44 43 42 42 44 45 43 43 43 40 36 35 36 38 37 35 34 32 31 29 27 25 23 24 24 24 24 25 25 24 24 23 23 24 25 26 27 29 29 29 28 28 28 29 31 33 34 34 35 36 36 36 35 34
74 76 76 75 76 76 76 74 73 72 71 70 69 68 67 66 63 60 58 57 55 54 52 50 47 43 43 45 46 45 44 45 45 44 44 46 47 46 45 46 44 40 37 38 39 40 39 37 36 35 34 33 30 28 27 28 28 29 29 30 30 29 29 29 29 30 31 32 34 36 36 36 36 35 35 36 38 39 39 40 40 40 41 41 42
72 73 76 77 77 78 78 76 74 74 73 73 73 72 70 69 67 64 62 60 59 57 56 54 52 49 48 48 47 46 45 45 46 47 49 50 50 49 48 48 47 44 41 39 40 42 42 40 38 38 38 37 36 33 31 32 33 33 34 34 35 35 35 34 34 34 35 35 37 39 40 41 41 41 41 42 43 43 43 44 44 45 45 46 46
75 73 74 76 78 79 80 78 75 73 72 72 72 72 70 69 68 67 65 64 63 61 59 58 56 53 52 51 49 46 44 44 45 49 55 55 53 52 51 51 50 49 47 44 44 44 43 42 42 43 42 41 41 39 37 36 36 38 38 38 38 39 38 38 38 38 38 39 41 42 43 44 45 46 46 47 47 47 47 47 48 49 49 50 51
81 77 74 74 76 78 80 80 79 76 75 74 73 72 72 71 69 69 68 67 66 65 63 61 59 57 56 56 53 49 48 47 44 47 56 60 57 54 54 52 53 54 53 52 50 48 45 44 45 46 46 45 44 43 41 40 40 41 42 42 42 42 42 42 43 43 44 45 45 45 46 47 48 49 49 50 51 51 51 51 52 52 53 53 54
83 82 78 75 74 75 77 79 81 81 81 80 78 76 75 74 73 72 72 71 70 68 67 65 64 62 61 60 59 56 57 57 53 54 61 66 62 59 57 56 56 58 57 56 55 52 49 47 46 46 47 47 47 46 45 44 43 44 45 46 46 46 46 47 47 48 49 50 50 50 49 50 50 51 52 53 53 54 54 54 55 55 56 56 57
85 85 84 81 78 74 73 75 78 80 81 82 82 80 79 78 77 76 75 74 73 72 71 69 68 67 66 65 64 62 63 67 69 68 70 71 68 65 63 61 61 63 63 61 59 56 54 52 50 49 48 49 49 49 48 47 47 47 48 49 49 50 50 51 52 53 55 55 55 55 54 54 54 54 55 55 55 56 57 57 58 58 59 60 60
91 89 88 88 86 81 76 74 76 77 77 78 80 81 82 82 81 80 78 77 77 76 75 73 71 71 71 71 70 68 68 71 74 73 73 74 72 69 67 66 66 67 67 66 64 61 59 58 56 55 54 54 54 55 55 54 54 54 54 53 53 54 55 56 57 58 58 58 58 58 58 58 57 58 58 57 57 58 59 59 60 60 61 62 63
98 95 93 92 92 90 86 81 78 78 77 76 76 79 82 84 85 83 81 80 80 79 77 76 74 74 74 75 75 74 74 75 76 75 75 76 75 74 73 73 72 72 71 71 69 68 67 65 63 62 61 60 60 61 62 62 62 62 61 61 60 60 61 61 61 61 61 61 62 62 61 61 61 61 60 60 59 60 61 61 62 62 63 64 66
103 102 99 97 96 96 95 92 88 84 81 79 77 78 81 84 86 86 85 83 82 80 79 78 76 75 76 77 77 77 77 78 78 78 79 78 78 79 79 78 77 76 76 76 75 75 75 74 72 71 69 67 67 67 67 68 68 68 67 66 65 65 65 64 64 64 64 64 64 64 65 65 65 64 64 64 63 63 64 64 64 64 64 66 68
106 106 106 104 103 101 99 99 98 95 90 87 84 82 82 83 85 86 86 86 84 83 82 81 79 78 79 80 81 81 81 81 81 82 82 82 82 82 82 81 81 80 80 79 79 79 79 79 79 78 76 73 72 72 72 73 73 73 72 71 69 69 69 69 69 68 68 68 68 68 68 68 67 67 67 67 66 66 67 67 67 66 66 68 70
108 108 108 108 108 107 104 102 103 102 100 98 95 92 88 86 85 84 85 85 86 86 85 84 83 82 83 83 84 85 86 86 86 86 87 87 87 86 85 85 84 83 83 83 83 82 81 81 81 81 80 79 78 77 77 77 78 78 77 76 74 73 74 74 74 74 73 73 73 72 72 71 70 70 70 70 69 69 69 69 69 69 69 70 72
110 110 110 110 110 111 111 108 106 106 105 105 104 103 99 94 92 90 87 86 86 86 88 88 87 86 86 86 87 88 89 90 91 91 92 93 93 91 90 88 87 85 85 86 86 87 86 85 84 84 84 84 83 82 82 81 82 82 82 82 81 80 79 79 79 79 78 77 76 74 73 72 71 71 71 71 71 71 72 73 74 74 74 74 75
115 114 113 112 112 113 114 114 113 111 110 108 108 109 108 105 101 99 97 94 92 89 88 89 89 89 88 88 89 90 91 93 93 94 95 96 97 97 95 93 91 89 88 88 89 90 90 90 89 88 88 87 87 87 86 86 86 86 86 86 86 86 85 84 82 80 78 75 73 72 71 71 71 71 72 73 74 77 79 80 80 80 80 80 80
119 118 117 116 116 115 115 116 116 117 116 114 112 111 112 112 110 107 105 104 103 99 95 92 91 91 90 90 91 92 93 94 95 95 96 97 98 99 99 98 97 95 93 92 92 92 93 93 93 93 93 92 92 92 91 91 90 90 89 89 89 89 88 86 83 79 77 76 75 74 74 75 75 76 78 81 82 84 84 84 84 85 86 86 87
120 120 120 119 119 118 118 118 118 119 119 118 117 115 115 115 115 114 112 111 110 108 104 101 98 96 94 93 93 93 94 95 96 96 97 98 98 99 100 100 101 101 100 98 96 95 95 96 97 97 97 97 97 98 97 97 96 95 94 93 93 93 92 91 88 86 84 83 83 83 83 84 84 85 87 88 88 88 89 89 91 92 93 94 96
121 121 122 122 121 120 120 119 119 120 120 120 120 120 119 118 118 119 119 117 116 114 111 109 106 104 102 100 99 97 97 98 98 98 98 99 100 100 100 100 101 103 103 103 101 100 99 99 99 100 101 101 102 102 101 101 100 99 98 98 98 98 98 98 97 96 94 93 93 93 93 93 94 94 94 95 94 94 95 96 98 100 103 106 109
121 122 123 123 124 123 123 122 121 121 121 121 121 122 123 123 122 122 122 122 122 120 119 116 114 111 109 108 108 107 105 103 102 102 102 102 102 102 102 101 101 102 103 104 105 104 103 103 102 102 103 104 105 105 104 104 103 103 103 103 103 102 102 102 102 102 102 101 101 101 100 100 100 101 101 101 102 103 105 107 110 113 115 116 117
119 121 122 123 124 125 125 126 125 125 124 124 124 124 124 125 126 126 126 126 126 126 125 124 122 120 117 116 116 115 115 113 111 109 107 106 106 105 105 105 105 104 105 106 108 108 108 108 107 107 107 107 107 107 107 106 106 106 106 106 107 106 106 106 106 106 105 105 106 107 109 110 111 111 112 112 113 115 117 119 120 121 121 120 120
119 120 121 123 124 125 126 127 127 127 127 127 127 127 127 127 127 127 128 129 129 129 129 129 128 127 126 125 124 123 122 121 120 119 116 114 113 111 110 110 109 109 109 109 110 111 111 112 113 112 112 111 111 110 110 109 109 109 109 110 110 110 109 109 109 109 110 113 116 120 122 124 125 124 123 122 123 124 124 124 124 124 123 123 122
123 122 122 122 123 124 125 126 127 128 128 128 128 128 128 129 129 130 130 130 131 131 131 132 132 132 132 132 133 132 130 127 126 125 124 123 122 121 120 118 116 116 115 115 115 116 116 117 118 118 118 117 116 116 115 115 114 114 114 115 115 115 116 116 117 119 121 125 127 130 131 132 132 131 129 128 127 127 127 127 126 126 125 125 124
130 129 127 126 124 123 123 124 125 126 127 129 130 130 130 130 130 131 132 132 132 132 132 132 132 132 133 134 135 136 135 134 132 130 128 128 128 129 129 128 127 126 125 125 124 125 125 126 126 126 125 125 124 123 123 122 121 122 122 122 123 124 125 126 127 129 131 133 134 135 136 136 135 133 132 131 130 129 129 129 129 128 128 127 126
136 135 134 133 131 130 128 127 126 127 127 128 128 129 130 131 131 132 132 133 133 133 133 133 133 133 133 134 135 135 136 136 136 135 134 132 132 132 133 134 134 134 134 133 133 134 134 134 135 135 134 134 133 133 132 132 132 133 133 134 134 135 136 136 136 137 138 139 139 139 139 138 136 135 134 134 133 133 133 133 132 132 131 130 129
138 137 137 137 137 136 136 135 134 133 132 131 130 129 129 129 130 131 132 132 133 134 134 135 135 135 135 135 135 136 137 137 138 138 138 137 136 135 135 135 135 136 137 138 139 139 140 140 140 140 140 140 140 139 139 139 140 141 141 141 141 141 140 140 140 140 140 140 140 140 140 139 139 138 138 137 137 137 136 136 135 134 133 132 132
140 139 139 139 140 140 140 140 139 138 137 136 136 135 134 133 132 131 131 131 132 133 133 134 135 136 136 137 137 137 138 138 139 140 140 141 140 140 139 138 138 138 138 139 140 140 141 142 142 143 142 142 141 141 141 142 143 143 143 143 142 142 141 141 141 141 141 141 141 141 141 141 141 141 140 140 140 139 138 137 136 135 134 133 133
142 141 140 141 142 142 142 142 141 141 140 140 139 138 138 138 137 136 135 134 133 133 132 133 133 134 135 136 137 137 138 139 140 141 142 142 143 143 143 142 142 143 143 143 143 143 143 143 144 144 143 142 142 142 142 143 143 143 143 143 143 143 143 143 143 143 143 143 143 142 142 142 142 142 141 141 140 139 138 137 136 135 135 134 134
142 142 142 143 144 144 144 144 144 143 143 142 141 141 140 140 140 140 139 138 137 137 136 135 135 134 134 134 135 136 137 137 138 139 141 142 143 144 144 144 144 145 145 145 146 147 147 148 147 147 146 146 145 145 145 145 144 144 144 144 144 144 144 144 144 144 144 143 143 142 142 141 141 141 141 140 139 139 138 138 137 137 136 136 136
137 138 140 141 143 145 146 147 147 146 145 144 144 144 144 143 143 142 141 140 140 140 141 140 139 139 138 137 137 136 136 136 137 138 139 141 142 143 144 144 144 144 145 145 146 147 148 149 149 149 148 148 148 148 148 147 146 146 146 146 146 146 146 146 145 145 144 143 142 142 142 142 142 142 142 141 141 141 141 140 140 140 140 139 139
128 130 132 135 138 140 143 144 146 146 145 145 145 145 146 146 145 144 143 142 142 142 143 143 143 143 142 141 141 140 139 140 140 140 140 141 142 142 142 142 142 143 143 144 145 146 147 148 148 149 148 148 148 148 148 148 148 147 147 147 147 147 147 146 146 145 145 144 144 145 145 145 144 144 144 144 144 144 143 143 143 143 143 143 143
118 120 123 126 130 133 135 136 138 139 140 141 142 143 144 145 145 144 143 142 142 143 143 144 144 144 143 143 142 142 142 143 143 143 144 144 144 144 144 143 143 143 143 143 144 144 145 146 146 147 147 147 148 148 148 148 148 148 148 148 148 148 148 148 147 147 147 148 148 148 147 147 147 146 146 146 146 146 146 146 145 145 145 145 144
109 111 114 117 121 125 126 127 129 130 131 132 134 136 137 138 139 140 140 141 141 143 144 145 145 145 145 144 144 144 144 144 144 145 145 146 146 146 145 145 145 145 145 145 146 146 146 146 146 146 146 147 147 147 147 147 148 148 148 148 149 149 149 149 149 149 149 149 149 149 149 148 148 148 147 147 147 147 146 146 146 146 145 145 145
102 104 106 109 113 115 117 118 120 121 122 123 126 128 129 129 129 129 130 132 134 136 138 140 141 143 144 144 145 145 145 145 145 145 146 146 146 146 146 146 146 147 147 147 147 147 147 147 147 147 147 148 148 148 148 148 148 149 149 149 149 149 149 150 150 150 150 150 149 149 149 148 148 148 148 147 147 147 146 146 146 145 145 145 145
97 99 100 102 105 107 109 110 112 113 115 117 118 119 119 120 120 120 120 121 123 125 127 130 132 135 137 139 140 142 142 143 144 145 145 146 147 147 147 147 147 147 147 147 147 147 147 147 147 147 148 148 148 148 148 148 148 148 149 149 149 149 149 149 149 149 149 149 149 148 148 148 148 147 147 147 147 146 146 146 145 145 145 144 144
Wind_Direction
243 246 250 253 256 289 313 348 133 303 311 70 50 26 27 61 72 67 50 34 28 30 31 34 37 39 42 45 44 43 42 44 49 55 59 59 60 64 70 74 76 75 75 76 77 77 79 83 89 90 87 88 91 93 96 102 105 107 107 103 101 102 103 101 99 95 93 91 90 89 87 85 81 78 74 72 70 69 67 65 62 60 59 58 57
246 248 251 256 258 267 284 291 283 289 279 243 12 8 12 37 60 67 53 32 18 16 20 24 27 30 33 38 41 41 41 42 46 51 57 62 66 69 72 76 79 80 79 79 80 80 81 83 89 94 95 97 102 102 102 105 108 108 107 105 103 102 101 100 99 96 94 91 88 87 84 81 77 72 68 66 65 64 63 61 59 56 56 55 54
246 248 251 255 259 262 267 275 277 277 277 274 290 320 334 339 342 7 34 23 8 2 6 11 15 20 24 27 33 37 37 37 40 46 52 59 67 73 76 79 82 84 84 82 81 81 82 84 87 91 95 100 106 107 106 110 112 112 111 110 109 108 104 101 99 97 95 93 88 84 80 75 71 67 63 61 60 59 58 57 55 53 52 51 50
247 248 250 254 258 262 263 267 271 272 275 277 280 289 302 310 312 308 315 339 350 345 347 353 360 9 14 17 23 29 31 29 30 38 48 58 66 73 78 82 83 86 87 85 85 86 85 86 86 89 90 94 100 106 110 115 121 123 122 121 120 116 110 104 99 96 93 92 88 83 77 72 68 64 61 59 57 57 56 54 52 51 50 48 45
250 249 250 252 256 262 263 264 266 269 272 275 276 280 287 295 299 297 295 298 308 314 322 332 340 350 360 5 12 19 24 25 24 28 37 51 65 73 79 85 86 87 87 86 87 87 88 88 89 92 93 92 95 101 110 118 128 134 134 132 130 126 121 114 107 101 97 93 89 82 76 70 64 60 58 56 54 53 52 51 49 47 45 43 40
253 253 252 254 257 260 261 262 263 265 268 271 273 277 279 283 287 291 291 290 289 285 285 303 316 326 335 341 350 359 10 18 21 22 23 32 50 66 79 88 90 91 90 88 86 84 84 83 84 88 94 98 97 99 103 112 126 139 146 147 142 134 131 129 124 121 115 108 99 87 74 64 57 51 48 47 45 44 43 42 41 39 36 34 32
251 254 254 255 258 257 256 258 261 262 263 265 268 271 276 278 279 280 284 286 286 279 272 276 290 302 311 316 321 325 333 350 10 17 18 21 28 42 68 84 92 95 96 94 92 87 81 78 75 73 80 89 94 96 101 108 122 138 151 159 160 150 143 140 139 138 136 131 123 105 80 55 41 32 29 29 28 27 27 26 25 24 22 20 18
250 254 253 253 253 252 254 258 259 259 260 262 263 265 269 273 275 276 278 280 280 277 272 271 276 284 293 299 299 297 300 310 328 350 1 11 16 21 39 65 87 96 98 100 98 91 77 69 67 65 64 64 68 78 90 103 120 142 161 173 181 183 177 167 158 156 155 153 151 145 105 355 354 350 353 358 1 2 3 3 4 5 6 5 4
248 251 252 254 254 254 255 257 258 260 262 262 262 263 264 266 269 273 274 274 274 273 272 270 270 273 278 285 288 288 291 299 303 303 294 296 323 347 6 29 79 93 99 108 109 110 99 73 73 74 72 65 65 75 85 98 111 140 182 203 218 227 228 227 223 220 223 227 240 266 291 305 313 318 324 330 336 339 342 344 346 348 349 350 350
243 245 250 254 254 252 253 255 257 260 261 262 263 263 262 263 264 267 268 269 271 272 272 270 269 268 270 274 279 282 286 290 292 292 288 279 270 264 272 280 242 98 125 141 119 103 103 97 94 94 91 88 91 94 103 118 133 157 202 231 250 258 257 255 258 263 271 276 279 284 292 300 306 310 315 319 322 325 328 331 333 335 336 338 340
239 242 247 248 247 246 248 250 254 258 259 261 263 262 261 261 261 260 261 264 268 271 271 270 268 267 267 268 272 276 279 281 282 285 286 281 271 260 256 253 253 247 224 201 138 102 108 102 97 91 83 88 96 101 109 122 136 155 176 206 237 258 262 265 271 277 282 286 290 293 297 303 308 310 312 314 316 318 320 322 324 326 327 329 331
239 242 244 243 241 244 246 248 251 255 259 261 262 262 261 260 259 259 260 262 265 268 270 270 270 269 268 268 268 270 272 274 274 275 277 277 274 266 257 252 250 246 237 227 192 171 181 138 81 50 31 49 87 100 114 126 135 137 136 134 149 203 255 270 282 289 299 306 308 307 306 309 313 315 314 314 314 315 315 316 319 320 321 322 323
236 237 237 235 234 238 243 246 249 251 254 256 260 262 263 262 262 262 262 263 264 266 268 271 272 273 271 270 269 269 268 267 267 269 268 268 269 267 262 256 250 247 245 240 232 225 228 239 270 308 325 318 236 184 149 142 151 146 133 126 124 124 127 125 338 333 347 350 349 348 338 330 327 325 323 321 318 315 313 313 315 316 316 317 318
229 230 233 233 233 234 239 246 250 252 253 255 258 261 262 263 264 263 263 264 267 268 268 269 271 272 271 270 270 270 267 262 261 264 267 265 264 264 263 259 253 251 250 247 245 246 248 255 269 289 312 313 263 216 195 179 181 175 159 149 142 136 129 120 107 85 55 37 25 16 7 358 349 342 338 336 333 328 323 321 322 322 321 321 321
227 231 235 236 234 233 238 245 251 254 255 255 258 260 260 261 262 264 267 269 269 270 269 269 269 269 269 269 270 270 269 265 262 261 264 266 267 265 262 259 255 252 251 250 250 252 253 257 266 278 296 306 288 251 234 224 214 206 192 176 166 162 159 152 147 134 101 53 12 354 346 344 342 339 337 338 338 337 334 331 331 330 328 328 326
234 238 241 242 240 238 241 246 250 253 253 252 254 258 259 261 262 266 270 271 270 270 271 268 267 268 269 268 268 269 268 267 266 264 263 264 266 266 262 258 254 251 250 251 251 252 254 256 261 267 277 288 289 277 263 252 240 230 224 221 216 211 206 205 211 223 255 294 311 317 317 319 321 320 320 321 323 326 327 326 328 328 329 331 331
241 242 244 245 244 244 246 248 250 251 251 250 250 252 256 259 262 265 267 267 267 268 270 268 267 270 271 269 269 270 268 267 268 268 266 264 263 263 262 259 256 253 250 250 251 252 253 254 256 259 265 272 277 280 277 269 258 248 244 246 249 251 252 250 254 264 274 287 299 303 303 306 310 311 310 310 312 313 313 313 314 315 317 320 323
242 242 243 244 244 244 245 247 248 249 250 250 249 249 251 254 257 260 262 263 264 265 267 268 267 268 271 270 270 270 269 268 268 268 269 267 263 260 260 259 258 256 252 249 249 251 251 251 253 254 257 261 265 271 278 278 270 261 257 260 263 265 265 264 268 274 278 285 294 297 297 299 302 304 305 306 308 309 308 307 307 308 307 306 306
240 240 241 243 243 243 244 244 246 248 249 250 249 248 248 250 253 256 258 259 260 261 263 264 263 263 266 268 268 269 268 266 264 264 268 269 265 261 261 260 258 256 255 251 248 249 249 250 252 252 254 256 259 265 274 278 276 271 268 267 268 270 272 272 275 279 282 286 292 295 296 295 296 297 298 301 304 306 305 305 305 306 306 306 305
237 239 240 241 242 243 243 243 244 246 248 249 249 249 249 250 252 253 254 255 256 258 259 260 260 260 262 264 265 264 264 264 263 262 263 265 265 263 263 262 259 255 254 254 250 248 248 248 250 252 254 255 256 260 268 273 274 273 272 272 272 273 276 277 279 282 284 287 290 294 295 295 295 295 295 297 300 301 302 303 303 303 304 304 304
235 237 239 240 240 240 241 243 244 246 246 248 250 252 252 252 252 251 252 252 253 254 256 258 260 260 261 261 259 256 258 264 265 263 261 260 261 262 263 263 260 256 254 253 251 249 248 248 249 252 254 256 257 258 262 267 269 270 270 272 273 274 275 276 278 280 283 285 288 290 292 293 294 294 294 295 297 299 299 300 301 301 301 301 302
236 237 237 238 239 239 240 241 243 244 246 247 250 252 252 251 250 249 249 250 251 252 253 256 258 259 259 259 256 252 257 264 263 259 259 258 257 259 261 262 261 259 256 255 252 251 250 249 249 252 254 256 258 259 260 262 265 266 267 268 270 271 271 272 274 277 279 282 284 286 288 290 292 293 293 293 294 296 296 297 298 298 299 299 300
238 239 237 236 237 239 239 240 241 242 244 247 249 251 251 249 247 247 247 249 249 250 252 254 255 255 255 258 258 254 255 259 257 254 257 259 258 258 259 260 261 261 260 258 256 254 253 251 251 253 255 256 258 260 261 262 262 262 263 264 266 267 267 268 270 273 277 280 282 283 284 286 288 290 290 289 290 291 293 294 295 296 296 297 297
239 240 239 237 236 237 238 239 241 242 245 247 248 248 249 248 247 246 246 247 248 248 250 253 254 252 252 255 257 256 254 254 252 250 255 260 262 261 261 261 261 262 262 262 261 258 256 254 254 255 257 258 259 259 261 262 262 261 261 261 262 263 264 264 267 271 276 279 281 282 282 284 285 286 287 287 287 287 288 290 291 293 294 294 294
242 241 240 239 239 238 238 238 239 240 243 245 246 246 246 246 246 246 246 247 247 248 250 252 252 251 250 250 252 254 254 255 255 254 256 260 263 263 263 263 262 262 262 263 263 262 258 255 254 255 256 258 260 260 261 262 263 263 262 261 261 261 262 263 266 270 275 278 280 281 281 283 283 283 283 284 284 284 285 286 288 289 290 291 292
244 243 241 240 240 240 240 239 238 238 239 241 243 244 244 244 244 245 246 247 249 250 252 253 252 250 249 249 249 250 250 253 256 258 259 259 260 261 262 263 263 262 261 261 262 262 259 256 254 255 257 259 260 261 262 263 264 265 265 264 263 262 263 265 268 271 274 277 278 279 280 281 281 281 281 281 281 281 281 282 284 285 286 287 289
244 244 243 241 240 240 241 242 241 239 237 238 241 242 243 243 244 244 246 247 250 252 253 253 252 250 250 250 250 250 250 251 254 257 258 257 258 259 261 262 262 260 259 258 259 259 259 257 256 257 258 260 261 263 264 265 265 266 267 266 266 265 266 268 270 272 274 276 276 277 278 279 279 279 279 279 279 279 279 279 280 281 283 284 285
245 244 244 243 242 241 241 243 244 242 239 238 240 243 243 244 244 244 245 247 248 250 251 251 250 250 250 250 251 251 251 252 252 254 255 255 256 257 258 260 261 261 259 258 257 256 257 257 259 260 261 261 263 265 267 267 266 266 267 267 267 267 268 269 270 272 273 274 274 275 276 276 276 276 276 277 277 277 277 277 278 279 280 282 283
246 245 245 245 244 243 242 242 244 245 243 241 241 243 244 243 244 245 246 247 248 248 249 249 249 249 250 250 251 251 251 252 252 253 253 254 255 257 258 259 260 261 260 260 259 258 257 256 257 258 260 262 265 267 267 267 267 267 267 267 267 267 267 268 269 269 270 271 272 273 274 274 273 273 273 273 274 274 275 276 277 278 279 280 282
245 246 246 246 246 246 245 244 243 244 245 245 245 246 244 242 242 243 245 247 248 249 250 250 250 250 250 251 252 252 252 252 253 254 254 254 254 254 256 258 260 260 260 260 260 260 260 259 258 258 258 259 262 264 265 266 267 267 268 267 267 267 267 267 267 268 269 270 271 272 272 272 271 271 270 271 272 273 273 274 276 277 278 279 280
246 246 246 247 247 247 247 247 245 244 244 245 247 249 248 246 243 242 243 244 246 248 249 250 250 250 250 250 251 252 252 253 254 254 255 256 256 255 255 256 257 259 259 258 258 259 260 261 261 261 261 260 261 262 263 265 266 267 267 267 267 267 267 267 268 269 270 271 272 272 271 271 270 270 270 271 271 272 274 275 277 278 278 278 279
247 247 247 247 247 247 247 248 248 247 246 245 245 247 250 250 248 246 245 245 245 246 246 248 248 248 248 249 249 250 251 252 253 253 254 255 256 256 256 255 255 256 257 257 257 257 258 259 260 261 262 262 263 264 264 265 266 267 268 267 267 267 268 269 270 270 271 270 270 269 268 268 268 268 269 270 271 273 274 276 277 278 278 279 280
247 247 247 247 248 248 248 247 248 248 248 247 245 244 246 249 250 250 249 248 249 248 247 246 246 246 246 247 247 248 249 249 250 251 251 252 253 255 256 257 256 255 255 256 257 257 257 257 258 259 260 261 262 263 264 265 266 267 267 268 268 268 268 268 268 268 267 267 266 265 264 265 266 267 268 269 271 272 273 275 276 277 277 278 279
247 247 247 247 247 248 248 248 248 248 248 248 248 246 245 245 247 249 250 251 251 251 251 249 247 246 246 246 246 246 247 247 248 248 249 250 251 253 255 256 257 257 256 256 256 256 257 257 258 258 259 260 261 262 262 263 264 265 266 266 267 267 267 267 267 266 266 266 266 265 265 266 267 267 268 269 270 271 272 274 275 276 277 278 279
247 247 247 247 247 247 248 248 248 248 248 248 248 248 248 246 246 246 248 249 251 252 253 252 251 249 248 247 246 246 246 246 246 247 247 248 249 250 252 253 255 257 258 258 257 256 256 257 257 258 258 259 260 261 261 262 263 263 264 265 265 266 266 267 267 267 267 267 268 268 269 269 269 269 269 270 270 271 273 274 275 276 277 279 280
247 247 247 247 247 247 248 248 248 248 249 248 248 248 249 249 248 247 246 247 248 250 251 253 253 253 252 250 249 248 247 247 246 247 247 248 248 249 250 251 252 254 256 258 259 258 257 257 257 257 257 258 259 259 260 261 262 263 263 264 265 265 266 266 266 267 267 268 269 270 271 271 271 271 271 271 271 272 274 275 276 278 279 280 281
247 247 247 248 248 248 248 248 249 249 249 249 249 249 249 249 249 249 248 248 247 248 249 250 252 253 254 254 253 252 251 250 249 248 248 248 248 248 249 250 251 252 253 255 257 258 258 258 258 257 257 257 258 258 259 260 260 261 262 263 264 264 265 265 265 265 266 267 268 270 271 272 273 274 274 273 274 275 276 277 278 280 280 281 282
250 249 249 248 248 249 249 249 249 249 250 250 250 250 250 250 250 250 250 249 249 249 249 249 250 251 253 254 255 255 255 254 252 251 250 249 249 249 249 250 251 252 253 254 255 256 258 258 259 259 258 258 258 259 259 259 260 261 262 263 264 264 264 264 264 265 266 268 270 272 274 275 277 277 277 277 278 278 279 280 281 281 282 282 282
251 251 251 250 250 249 249 250 249 250 250 250 250 250 250 250 250 250 250 250 250 250 251 251 251 251 252 253 254 255 256 256 256 254 253 252 251 251 251 251 251 252 254 255 256 257 258 258 259 260 260 260 260 260 261 261 261 261 262 263 264 265 266 266 266 267 269 271 273 274 275 277 278 279 279 280 280 280 281 281 282 282 282 282 282
252 252 252 252 251 251 250 251 251 251 250 250 250 250 250 250 250 250 250 251 251 251 251 251 252 252 253 253 253 254 255 255 256 256 256 255 255 254 254 254 254 255 255 256 257 258 259 260 261 261 262 262 262 262 262 262 263 263 264 264 266 267 268 268 269 270 271 272 274 275 276 277 278 279 279 280 280 281 281 281 282 282 282 282 282
252 252 252 252 252 252 252 252 252 252 252 251 251 251 251 251 251 251 251 251 251 251 251 252 252 253 253 253 254 254 254 254 255 255 256 257 257 257 257 257 257 257 258 258 259 260 261 262 262 263 264 264 264 265 265 265 266 266 267 268 268 270 270 271 272 272 273 274 275 275 276 277 278 279 280 280 281 281 281 281 281 282 282 282 282
252 252 253 253 253 252 252 253 253 253 252 252 252 252 252 252 252 252 252 252 252 252 252 252 252 253 253 253 253 254 255 255 255 255 255 256 257 258 258 259 259 260 260 260 261 262 262 263 264 264 265 266 266 267 268 268 269 269 270 271 271 272 273 273 274 274 275 275 276 277 278 278 279 280 280 280 280 281 281 281 281 281 282 282 282
253 253 253 253 254 254 253 254 254 253 253 253 253 253 253 253 253 253 253 253 253 253 253 253 253 253 253 253 253 254 254 255 255 255 256 256 256 257 257 259 260 261 261 262 262 263 264 264 265 265 266 267 267 268 269 270 270 271 272 272 273 274 274 275 275 276 276 277 277 278 279 279 280 280 280 280 280 280 281 281 281 281 281 281 281
254 254 254 254 254 255 255 255 255 254 254 254 254 254 254 254 254 254 254 254 254 254 254 254 254 254 254 254 254 254 255 255 255 256 256 256 257 257 257 257 258 260 261 262 263 263 264 265 266 266 267 268 268 269 269 270 271 272 272 273 274 274 275 275 276 276 277 277 278 278 279 279 279 280 280 280 280 280 281 281 281 281 281 281 282
255 255 255 255 255 255 255 255 255 255 255 255 255 255 254 254 254 254 254 254 254 254 254 254 254 254 255 255 255 255 256 256 256 256 257 257 257 257 258 258 258 259 260 260 261 262 263 264 265 266 267 268 268 269 270 270 271 272 272 273 273 274 274 275 275 276 276 277 277 277 278 278 278 279 279 280 280 280 280 281 281 281 281 281 282
255 255 255 255 255 255 255 256 256 256 256 255 255 256 255 255 255 255 255 254 254 255 255 255 255 255 255 255 255 256 256 257 257 258 258 258 258 258 259 259 259 259 260 260 261 262 262 263 264 265 265 266 267 268 268 269 270 271 271 272 272 273 273 274 274 275 275 276 276 276 277 277 278 278 278 279 279 279 280 280 281 281 281 281 281
254 255 255 255 255 255 256 256 256 256 256 256 256 256 256 256 256 256 256 256 256 256 256 256 256 256 256 256 256 256 257 257 257 258 258 259 259 259 260 260 260 260 261 261 261 262 262 263 263 264 265 265 266 266 267 268 268 269 270 270 271 271 272 273 273 274 274 275 275 276 276 277 277 277 278 278 278 279 279 280 280 280 281 281 281
254 254 254 255 255 256 256 256 257 257 257 257 257 256 256 256 257 257 257 257 257 257 257 257 257 257 257 257 257 257 257 258 258 258 259 259 259 260 260 261 261 261 261 262 262 262 263 263 264 264 265 265 266 266 267 267 268 268 269 269 270 270 271 272 272 273 273 274 274 275 275 276 276 277 277 278 278 279 279 279 280 280 280 281 281
255 255 255 255 255 256 256 256 257 257 257 257 257 257 257 257 257 257 257 257 257 257 257 258 258 258 258 258 258 258 258 258 258 259 259 259 260 260 261 261 261 262 262 262 262 263 263 264 264 264 265 265 266 266 267 267 268 268 269 269 269 270 271 271 272 272 273 274 274 275 275 276 276 277 277 278 278 278 279 279 280 280 280 281 281
256 256 256 256 256 257 257 257 257 257 257 257 257 257 257 258 258 257 257 257 257 258 258 258 258 258 258 258 258 258 258 258 259 259 259 260 260 261 261 261 262 262 262 263 263 263 264 264 264 265 265 265 266 266 267 267 268 268 269 269 270 270 271 271 272 273 273 274 274 275 275 276 276 277 277 278 278 278 279 279 280 280 281 281 281
257 257 257 257 258 258 259 259 258 258 257 257 256 256 257 258 258 259 258 258 258 258 258 258 258 258 258 258 258 258 258 258 258 259 259 260 260 260 261 261 262 262 263 263 263 264 264 265 265 265 266 266 266 267 267 268 268 269 269 270 270 271 271 272 273 273 274 274 275 275 276 276 277 277 278 278 278 279 279 280 280 281 281 281 282